| time (UTC) | temp F | wind direction | speed MPH | gust MPH | rain 1hr in | rain 24hr in | rain mn in | humidity % | barometer mb |
| 20260504081533 | 68 | 0 | 0.0 | 2.0 | 0.00 | 0.02 | 0.00 | 76 | 1015.8 |
| 20260504044536 | 70 | 0 | 0.0 | 2.0 | 0.00 | 0.05 | 0.00 | 72 | 1016.9 |
| 20260504043041 | 70 | 0 | 0.0 | 2.0 | 0.00 | 0.05 | 0.00 | 72 | 1017.1 |
| 20260504041530 | 70 | 0 | 0.0 | 2.0 | 0.00 | 0.05 | 0.00 | 71 | 1017.0 |
| 20260504040035 | 70 | 0 | 0.0 | 2.0 | 0.00 | 0.05 | 0.00 | 71 | 1017.3 |
| 20260504034536 | 70 | 0 | 0.0 | 2.0 | 0.00 | 0.05 | 0.05 | 70 | 1017.5 |
| 20260504033032 | 70 | 0 | 0.0 | 3.0 | 0.00 | 0.05 | 0.05 | 70 | 1017.3 |
| 20260504031530 | 70 | 0 | 0.0 | 2.0 | 0.00 | 0.05 | 0.05 | 69 | 1017.2 |
| 20260504030029 | 70 | 79 | 0.0 | 3.0 | 0.00 | 0.05 | 0.05 | 69 | 1017.3 |
| 20260504024532 | 70 | 0 | 0.0 | 3.0 | 0.00 | 0.05 | 0.05 | 69 | 1017.1 |
| 20260504023030 | 70 | 0 | 0.0 | 5.0 | 0.00 | 0.05 | 0.05 | 68 | 1017.1 |
| 20260504021535 | 70 | 0 | 1.0 | 4.0 | 0.00 | 0.05 | 0.05 | 69 | 1017.2 |
| 20260504020037 | 71 | 0 | 0.0 | 2.0 | 0.00 | 0.05 | 0.05 | 69 | 1017.2 |
| 20260504014537 | 71 | 0 | 1.0 | 3.0 | 0.00 | 0.05 | 0.05 | 67 | 1017.2 |
| 20260504013031 | 71 | 0 | 1.0 | 3.0 | 0.00 | 0.05 | 0.05 | 68 | 1017.3 |
| 20260504011532 | 71 | 348 | 1.0 | 3.0 | 0.00 | 0.05 | 0.05 | 68 | 1017.3 |
| 20260504010032 | 71 | 0 | 0.0 | 5.0 | 0.00 | 0.05 | 0.05 | 68 | 1017.1 |
| 20260504004534 | 71 | 31 | 1.0 | 5.0 | 0.00 | 0.05 | 0.05 | 68 | 1016.7 |
| 20260504003029 | 72 | 0 | 0.0 | 9.0 | 0.00 | 0.05 | 0.05 | 68 | 1016.7 |
| 20260504001532 | 72 | 69 | 1.0 | 5.0 | 0.00 | 0.05 | 0.05 | 67 | 1016.5 |
| 20260504000029 | 72 | 18 | 1.0 | 4.0 | 0.00 | 0.05 | 0.05 | 67 | 1016.4 |
| 20260503234532 | 72 | 28 | 1.0 | 3.0 | 0.00 | 0.05 | 0.05 | 66 | 1016.3 |
| 20260503233029 | 72 | 46 | 1.0 | 5.0 | 0.00 | 0.05 | 0.05 | 66 | 1016.2 |
| 20260503231532 | 72 | 64 | 2.0 | 7.0 | 0.00 | 0.05 | 0.05 | 66 | 1016.3 |
| 20260503230032 | 73 | 28 | 1.0 | 6.0 | 0.00 | 0.05 | 0.05 | 66 | 1016.3 |
| 20260503224529 | 73 | 313 | 2.0 | 6.0 | 0.00 | 0.07 | 0.05 | 65 | 1016.3 |
| 20260503223032 | 73 | 52 | 2.0 | 5.0 | 0.00 | 0.07 | 0.05 | 65 | 1016.2 |
| 20260503221532 | 73 | 116 | 1.0 | 5.0 | 0.00 | 0.07 | 0.05 | 66 | 1016.4 |
| 20260503220032 | 74 | 51 | 3.0 | 8.0 | 0.00 | 0.07 | 0.05 | 65 | 1016.3 |
| 20260503214540 | 74 | 85 | 2.0 | 9.0 | 0.00 | 0.09 | 0.05 | 65 | 1016.2 |
| 20260503213030 | 74 | 10 | 1.0 | 12.0 | 0.00 | 0.09 | 0.05 | 65 | 1016.2 |
| 20260503211529 | 75 | 5 | 1.0 | 7.0 | 0.00 | 0.09 | 0.05 | 65 | 1016.2 |
| 20260503210034 | 75 | 39 | 3.0 | 12.0 | 0.00 | 0.09 | 0.05 | 64 | 1016.3 |
| 20260503204534 | 74 | 345 | 5.0 | 16.0 | 0.00 | 0.26 | 0.05 | 65 | 1016.2 |
| 20260503203029 | 75 | 5 | 6.0 | 13.0 | 0.00 | 0.26 | 0.05 | 63 | 1016.3 |
| 20260503201532 | 76 | 32 | 4.0 | 14.0 | 0.00 | 0.26 | 0.05 | 63 | 1016.5 |
| 20260503200041 | 75 | 26 | 4.0 | 16.0 | 0.00 | 0.26 | 0.05 | 63 | 1016.4 |
| 20260503194530 | 75 | 14 | 9.0 | 19.0 | 0.00 | 0.27 | 0.05 | 63 | 1016.8 |
| 20260503193036 | 75 | 311 | 6.0 | 16.0 | 0.00 | 0.27 | 0.05 | 63 | 1016.9 |
| 20260503191529 | 74 | 24 | 6.0 | 17.0 | 0.00 | 0.27 | 0.05 | 65 | 1017.1 |
| 20260503190031 | 74 | 16 | 5.0 | 18.0 | 0.00 | 0.27 | 0.05 | 64 | 1017.5 |
| 20260503184539 | 75 | 5 | 5.0 | 16.0 | 0.00 | 0.27 | 0.05 | 65 | 1017.6 |
| 20260503183030 | 75 | 275 | 6.0 | 15.0 | 0.00 | 0.27 | 0.05 | 65 | 1017.9 |
| 20260503181532 | 75 | 11 | 5.0 | 16.0 | 0.00 | 0.27 | 0.05 | 66 | 1017.8 |
| 20260503180044 | 75 | 65 | 7.0 | 15.0 | 0.00 | 0.27 | 0.05 | 64 | 1017.8 |
| 20260503174543 | 74 | 83 | 4.0 | 15.0 | 0.00 | 0.27 | 0.05 | 67 | 1017.7 |
| 20260503173041 | 73 | 44 | 6.0 | 16.0 | 0.00 | 0.27 | 0.05 | 67 | 1017.8 |
| 20260503171533 | 72 | 49 | 3.0 | 15.0 | 0.00 | 0.27 | 0.05 | 69 | 1018.0 |